This is the latest recevied weather packets stored in our database for station/object N3TJJ-2. If no packets are shown the sender has not sent any weather packets the latest 10 day(s).
| Time | Temp. | Humidity | Pressure | Rain* | Wind** | Luminosity | Snow |
|---|---|---|---|---|---|---|---|
| 1778245879 | 11.67° C | 69% | 1015.7 hPa | 0 mm | - | - | - |
| 1778245522 | 11.11° C | 68% | 1015.7 hPa | 0 mm | - | - | - |
| 1778245162 | 11.11° C | 69% | 1015.8 hPa | 0 mm | - | - | - |
| 1778244798 | 11.11° C | 71% | 1015.9 hPa | 0 mm | - | - | - |
| 1778244439 | 10.56° C | 72% | 1015.8 hPa | 0 mm | - | - | - |
| 1778244079 | 10.56° C | 75% | 1015.9 hPa | 0 mm | - | - | - |
| 1778243718 | 10.56° C | 74% | 1015.7 hPa | 0 mm | - | - | - |
| 1778243361 | 10.56° C | 75% | 1015.7 hPa | 0 mm | - | - | - |
| 1778243029 | 10° C | 75% | 1015.6 hPa | 0 mm | - | - | - |
| 1778242638 | 10° C | 78% | 1015.7 hPa | 0 mm | - | - | - |
| 1778242279 | 9.44° C | 78% | 1015.7 hPa | 0 mm | - | - | - |
| 1778241924 | 9.44° C | 78% | 1015.6 hPa | 0 mm | - | - | - |
| 1778241567 | 9.44° C | 78% | 1015.6 hPa | 0 mm | - | - | - |
| 1778241206 | 9.44° C | 77% | 1015.5 hPa | 0 mm | - | - | - |
| 1778240839 | 9.44° C | 77% | 1015.3 hPa | 0 mm | - | - | - |
| 1778240479 | 8.89° C | 79% | 1015.4 hPa | 0 mm | - | - | - |
| 1778240120 | 8.33° C | 81% | 1015.4 hPa | 0 mm | - | - | - |
| 1778239760 | 7.78° C | 82% | 1015.5 hPa | 0 mm | - | - | - |
| 1778239402 | 7.22° C | 82% | 1015.4 hPa | 0 mm | - | - | - |
| 1778239038 | 7.22° C | 82% | 1015.4 hPa | 0 mm | - | - | - |
| 1778238690 | 7.78° C | 81% | 1015.4 hPa | 0 mm | - | - | - |
| 1778238325 | 7.78° C | 82% | 1015.4 hPa | 0 mm | - | - | - |
| 1778237961 | 7.22° C | 83% | 1015.2 hPa | 0 mm | - | - | - |
| 1778237601 | 6.67° C | 83% | 1015.2 hPa | 0 mm | - | - | - |
| 1778237239 | 6.11° C | 82% | 1015.2 hPa | 0 mm | - | - | - |
* Rain latest hour (hover to see other rain measurements)
** Current wind speed in m/s (hover to see current wind gust speed)